128  
ASUS43 KTOP 300208  
RWRKS  
 
WEATHER ROUNDUP FOR KANSAS  
NATIONAL WEATHER SERVICE GOODLAND KS  
900 PM CDT SUN MAY 29 2016  
 
NOTE: "FAIR" INDICATES FEW OR NO CLOUDS BELOW 12,000 FEET WITH NO  
SIGNIFICANT WEATHER AND/OR S TO VISIBILITY
.  
 
KSZ001>006-013>018-027>032-041>047-300300-  
NORTHWEST KANSAS  
 
CITY SKY/WX TMP DP RH WIND PRES REMARKS
 
GOODLAND CLOUDY 61 51 70 S29G44 30.04F  
HAYS CLOUDY 70 48 46 W12 30.05R  
HILL CITY CLOUDY 72 47 40 SW16G23 29.97F  

 
 
KSZ061>065-074>080-084>089-300300-  
SOUTHWEST KANSAS  
 
CITY SKY/WX TMP DP RH WIND PRES REMARKS
 
DODGE CITY CLOUDY 66 55 67 N5 30.08R  
ELKHART N/A 60 52 75 S10 N/A  
GARDEN CITY CLOUDY 67 50 54 E8 30.09R  
GREAT BEND CLOUDY 73 57 56 S10G17 30.06R  
LIBERAL CLOUDY 63 48 59 S12 30.09R  
PRATT CLOUDY 69 56 62 SE6 30.06F  

 
 
KSZ066>073-081>083-090>101-300300-  
SOUTHEAST KANSAS  
 
CITY SKY/WX TMP DP RH WIND PRES REMARKS
 
CHANUTE CLOUDY 73 69 87 SE5 30.03F  
COFFEYVILLE CLOUDY 72 68 87 SW3 30.03F  
HUTCHINSON CLOUDY 72 60 66 S7 30.04R  
MEDICINE LODGE N/A 73 59 61 S6 30.04F  
NEWTON CLOUDY 66 55 68 S7 30.06R  
PARSONS CLOUDY 74 69 85 VRB3 30.03F  
WICHITA INTL MOCLDY 70 57 63 S8 30.03R  
WICHITA JABRA CLOUDY 69 57 65 S6 30.03R  
WICHITA MCCONL PTCLDY 71 57 60 S6 30.04R  
WINFIELD MOCLDY 72 62 71 SE6 30.04S  

 
 
KSZ007>012-019>026-033>040-048>060-102>105-300300-  
NORTHEAST KANSAS  
 
CITY SKY/WX TMP DP RH WIND PRES REMARKS
 
CONCORDIA CLOUDY 67 59 75 S8 30.03R  
EMPORIA CLOUDY 70 64 81 SE6 30.03R  
LAWRENCE CLOUDY 72 64 76 E3 30.02S  
MANHATTAN CLOUDY 69 64 84 CALM 30.02R  
MARYSVILLE CLOUDY 70 63 78 S3 30.03R  
OLATHE IND CLOUDY 75 58 55 SE6 30.04F  
OLATHE EXE CLOUDY 73 62 68 S3 30.04F  
SALINA CLOUDY 71 61 70 S8 30.02R  
TOPEKA BILLARD CLOUDY 74 66 76 CALM 30.03R  
TOPEKA FORBES CLOUDY 74 67 78 CALM 30.03R  

 
 
 
CLICK HERE TO GO TO PREVIOUS BULLETINS.

The Nexlab KS Page Main Text Page